Retour au catalogue

ARIANE 2 DEB

ActifGTO
NORAD 27595·DEBRIS·🇫🇷 France

Lancé May 17, 1988 depuis Guiana Space Centre

Loading…

TLE

FraisSource: Space-Track

Époque: Sep 14, 2026, 13:57 UTC

1 27595U 88040E   26257.58131605 -.00000070  00000-0  25348-3 0  9992
2 27595   7.7317 318.0580 7174027 160.9350 253.9948  2.29435952201679

Suivez ARIANE 2 DEB en temps réel avec AllMySat

Download on the App Store